Terug naar catalogus

STARLINK-33965

ActiefCommunicatieVLEO
NORAD 64755·PAYLOAD·🇺🇸 United States

Gelanceerd Jul 8, 2025 vanaf Cape Canaveral Space Force Station

Loading…

Volgende Passages (komende 24 uur)

TLE

VersSource: CelesTrak SupGP

Epoch: Sep 14, 2026, 20:39 UTC

1 64755C 25147A   26257.86090278  .00003148  00000+0  93034-4 0  2573
2 64755  53.1577  79.8943 0001184  84.3623 276.8292 15.34381312    15

Volg STARLINK-33965 in realtime met AllMySat

Download on the App Store